STARLINK-1994 (47589 NORAD) Tracking and Keplerian Element Data

This shows tracking and keplerian element data for the satellite.

Feedback or suggestion? Click here.




ElementValue
Catalog47589
NameSTARLINK-1994
Epoch Orbit177
Epoch Day101.91668981
Epoch Year2021
RAAN157.5727
Inclination53.054
Eccentricity0.0004155
Argument of Perigee8.2432
Mean Anonmoly231.6973
Mean Motion15.62790066
Decay Rate6.664E-05
L11 47589U 21009AT 21101.91668981 .00006664 00000-0 78459-4 0 9997
L22 47589 53.0540 157.5727 0004155 8.2432 231.6973 15.62790066 1778

Live tracking and technical data element details for STARLINK-1994 (NORAD 47589). STARLINK-1994 can be tracked NOW for your location showing map with azimuth and elevation plus other details from your city location.

Track the satellite on the map from your city or location and see movement details for azimuth, elevation, latitude, longitude, range, height, and movement on the map or in text.







IsCatalogInMostPopularTable: catalog: 47589, numindb: 17
Update: records affected: 1



GetName: 47589 STARLINK-1994

Hit Count: updated at: Tue, 13 Apr 2021 05:32:04 GMT